Regional Weather Roundup
Issued by NWS Columbia, SC

Home | Current Version | Previous Version | Text Only | Print | Product List | Glossary On
Versions: 1 2 3 4 5 6 7 8 9 10 11 12 13 14 15 16 17 18 19 20 21 22 23 24 25 26 27 28 29 30 31 32 33 34 35 36 37 38 39 40 41 42 43 44 45 46 47 48 49 50
000
ASUS42 KCAE 021610
RWRCAE
REGIONAL WEATHER ROUNDUP
NATIONAL WEATHER SERVICE COLUMBIA SC
1200 PM EDT THU JUL 02 2015

NOTE: "FAIR" INDICATES FEW OR NO CLOUDS BELOW 12,000 FEET WITH NO
SIGNIFICANT WEATHER AND/OR OBSTRUCTIONS TO VISIBILITY.

NOT ALL STATIONS ARE QUALITY CONTROLLED BY THE NATIONAL
WEATHER SERVICE. USE DATA WITH CAUTION...ESPECIALLY
DEWPOINT OBSERVATIONS.

SCZ001>056-GAZ040-063>065-077-021700-
...UPSTATE SOUTH CAROLINA...

CITY           SKY/WX    TMP DP  RH WIND       PRES   REMARKS
ANDERSON       PTSUNNY   82  70  66 W14       30.00S
SPARTANBURG      N/A     81  68  65 SW10      29.98F
CLEMSON        CLOUDY    79  70  74 W7        30.01S
GREENVILLE     PTSUNNY   80  68  66 SW10      30.00F
GREENWOOD      SUNNY     83  70  64 S12       30.01F
GREER          PTSUNNY   82  69  64 SW9       29.98F
ROCK HILL      PTSUNNY   81  68  64 SW8       29.98S
CHESTER        PTSUNNY   82  64  54 W7G16     29.99S
LAURENS        PTSUNNY   81  75  83 SW13G20   29.99F


...CENTRAL SOUTH CAROLINA...

CITY           SKY/WX    TMP DP  RH WIND       PRES   REMARKS
COLUMBIA APT   MOSUNNY   85  67  54 SW12G20   29.99F
COLUMBIA OWENS MOSUNNY   85  67  54 SW12G20   30.01F
DARLINGTON     MOSUNNY   84  70  61 SW14      29.99R
FLORENCE       MOSUNNY   85  69  58 SW13      29.98S
MCENTIRE ANGB  PTSUNNY   85  67  54 SW15      30.00F
ORANGEBURG     PTSUNNY   82  67  60 SW13      30.02F
SUMTER SHAW    PTSUNNY   83  69  61 SW12      29.99R
NEWBERRY       MOSUNNY   82  68  61 SW15      30.02F
BARNWELL       FAIR      82  72  69 SW5       30.03F
MANNING        FAIR      86  64  48 SW13G22   30.01R
CAMDEN         FAIR      86  68  54 W15G22    29.99S
LANCASTER      MOSUNNY   82  68  61 W13       29.98S
WINNSBORO      MOSUNNY   82  68  61 SW9       30.00S


...EASTERN AND COASTAL SOUTH CAROLINA...

CITY           SKY/WX    TMP DP  RH WIND       PRES   REMARKS
MYRTLE BEACH   MOSUNNY   88  66  48 W13G18    30.01S
N MYRTLE BCH   MOSUNNY   87  68  52 W10       29.98F
CONWAY         FAIR      86  68  54 SW8G16    29.99F HAZE
MARION         FAIR      84  68  58 SW10G16   29.98F
HARTSVILLE     FAIR      84  66  54 SW12G18   29.98S
FLORENCE       MOSUNNY   85  69  58 SW13      29.98S
DARLINGTON     MOSUNNY   84  70  61 SW14      29.99R
CHARLESTON APT PTSUNNY   87  72  60 W7        30.02F
MOUNT PLEASANT FAIR      88  73  62 W10       30.02S HX  96
WALTERBORO     CLOUDY    82  68  61 W7        30.04R
BEAUFORT       PTSUNNY   87  74  64 W9        30.03S HX  95


...EASTERN GEORGIA...

CITY           SKY/WX    TMP DP  RH WIND       PRES   REMARKS
AUGUSTA BUSH F SUNNY     86  68  54 SW9       30.01F
AUGUSTA DANIEL SUNNY     87  66  49 SW8G18    30.02F
SAVANNAH       PTSUNNY   90  69  50 W13       30.04S


...SOUTHERN NORTH CAROLINA...

CITY           SKY/WX    TMP DP  RH WIND       PRES   REMARKS
CHARLOTTE      PTSUNNY   83  65  54 W5G17     29.97S
MONROE         MOSUNNY   84  67  56 SW14G20   29.96S
ASHEVILLE      LGT RAIN  68  64  87 W3        30.05R

$$


USA.gov is the U.S. government's official web portal to all federal, state and local government web resources and services.